This demonstration page uses our WeatherBlox Daily Observations layout. Learn more.

Left ArrowRight Arrow

Hourly Observations for June 18, 2016

Temp ( °F °C ) Dew Point ( °F °C ) Humidity (%) Winds ( mph kmh ) Pressure ( in mb ) Visibility ( mi km ) Precip ( " mm )
12:51 am 00:51 Clear 77 25 16 -8.9 10 10 WNW 10 17 29.87 1011 10 16 0.00 0.00
1:51 am 01:51 Clear 74 23.3 16 -8.9 11 11 WNW 6 9 29.87 1012 10 16 0.00 0.00
2:51 am 02:51 Clear 69 20.6 17 -8.3 14 14 NE 5 7 29.87 1011 10 16 0.00 0.00
3:51 am 03:51 Clear 69 20.6 19 -7.2 15 15 SW 3 6 29.88 1012 10 16 0.00 0.00
4:51 am 04:51 Clear 63 17.2 19 -7.2 18 18 E 3 6 29.91 1013 10 16 0.00 0.00
5:51 am 05:51 Sunny 65 18.3 20 -6.7 18 18 Calm 29.92 1013 10 16 0.00 0.00
6:51 am 06:51 Sunny 74 23.3 21 -6.1 14 14 Calm 29.93 1014 10 16 0.00 0.00
7:51 am 07:51 Sunny 78 25.6 21 -6.1 12 12 S 5 7 29.95 1014 10 16 0.00 0.00
8:51 am 08:51 Sunny 85 29.4 22 -5.6 10 10 W 6 9 29.95 1014 10 16 0.00 0.00
9:51 am 09:51 Sunny 92 33.3 20 -6.7 7 7 WNW 8 13 29.93 1013 10 16 0.00 0.00
10:51 am 10:51 Sunny 97 36.1 20 -6.7 6 6 WNW 8 13 29.91 1013 10 16 0.00 0.00
11:51 am 11:51 Sunny 101 38.3 15 -9.4 4 4 NW 8 13 29.88 1012 10 16 0.00 0.00
12:51 pm 12:51 Sunny 104 40 12 -11.1 3 3 undefined N/A 29.86 1011 10 16 0.00 0.00
1:51 pm 13:51 Sunny 106 41.1 13 -10.6 3 3 WNW 10 17 29.84 1011 10 16 0.00 0.00
2:51 pm 14:51 Sunny 107 41.7 16 -8.9 4 4 WNW 12 19 29.83 1010 10 16 0.00 0.00
3:51 pm 15:51 Sunny 109 42.8 21 -6.1 4 4 WNW 16 26 29.80 1009 10 16 0.00 0.00
4:51 pm 16:51 Sunny 107 41.7 20 -6.7 4 4 WNW 14 22 29.78 1009 10 16 0.00 0.00
5:51 pm 17:51 Sunny 105 40.6 21 -6.1 5 5 W 16 26 29.78 1008 10 16 0.00 0.00
6:51 pm 18:51 Sunny 103 39.4 24 -4.4 6 6 WNW 16 26 29.77 1008 10 16 0.00 0.00
7:51 pm 19:51 Clear 98 36.7 22 -5.6 6 6 NW 13 20 29.78 1009 10 16 0.00 0.00
8:51 pm 20:51 Clear 93 33.9 23 -5 8 8 NNW 14 22 29.80 1009 10 16 0.00 0.00
9:51 pm 21:51 Clear 91 32.8 21 -6.1 8 8 NW 13 20 29.81 1010 10 16 0.00 0.00
10:51 pm 22:51 Clear 89 31.7 21 -6.1 8 8 NW 12 19 29.82 1010 10 16 0.00 0.00
11:51 pm 23:51 Clear 87 30.6 21 -6.1 9 9 NW 13 20 29.82 1010 10 16 0.00 0.00

Powered by AerisWeather